Total_Precipitation_Accumulation
0.75 0.67 0.63 0.56 0.49 0.41 0.35 0.36 0.36 0.30 0.31 0.28 0.21 0.18 0.17 0.13 0.11 0.10 0.09 0.09 0.08 0.09 0.11 0.16 0.19 0.23 0.29 0.33 0.39 0.41 0.39 0.36 0.34 0.34 0.33 0.30 0.29 0.29 0.31 0.32 0.32 0.33 0.36
0.80 0.74 0.64 0.58 0.53 0.46 0.38 0.34 0.33 0.33 0.32 0.31 0.28 0.24 0.23 0.19 0.14 0.13 0.12 0.12 0.10 0.08 0.07 0.10 0.17 0.27 0.38 0.47 0.53 0.52 0.48 0.42 0.40 0.40 0.40 0.37 0.36 0.35 0.35 0.35 0.35 0.36 0.39
0.86 0.81 0.70 0.58 0.52 0.51 0.47 0.42 0.41 0.38 0.34 0.31 0.27 0.26 0.26 0.23 0.17 0.14 0.13 0.12 0.10 0.09 0.07 0.08 0.12 0.22 0.35 0.47 0.57 0.62 0.57 0.50 0.46 0.45 0.44 0.43 0.40 0.40 0.43 0.43 0.41 0.40 0.41
1.04 0.94 0.81 0.68 0.68 0.70 0.64 0.54 0.49 0.43 0.37 0.35 0.31 0.31 0.29 0.28 0.21 0.17 0.16 0.13 0.11 0.09 0.08 0.07 0.10 0.16 0.24 0.36 0.52 0.65 0.68 0.64 0.58 0.53 0.48 0.45 0.44 0.44 0.48 0.49 0.50 0.49 0.50
1.09 0.99 0.86 0.82 0.86 0.81 0.73 0.65 0.58 0.53 0.45 0.43 0.40 0.38 0.38 0.36 0.29 0.25 0.22 0.19 0.15 0.12 0.11 0.11 0.11 0.12 0.15 0.21 0.34 0.52 0.64 0.67 0.62 0.53 0.50 0.48 0.46 0.47 0.49 0.50 0.50 0.50 0.52
1.13 1.04 0.91 0.89 0.95 0.90 0.81 0.76 0.69 0.64 0.58 0.56 0.54 0.43 0.39 0.41 0.37 0.29 0.25 0.22 0.19 0.17 0.15 0.14 0.14 0.13 0.14 0.16 0.21 0.33 0.49 0.62 0.63 0.58 0.55 0.52 0.51 0.52 0.55 0.57 0.57 0.54 0.54
1.37 1.23 1.03 0.99 1.02 0.94 0.86 0.85 0.86 0.83 0.75 0.72 0.67 0.52 0.41 0.37 0.35 0.29 0.25 0.23 0.20 0.20 0.18 0.18 0.17 0.16 0.15 0.17 0.20 0.23 0.32 0.50 0.63 0.67 0.63 0.60 0.60 0.62 0.65 0.70 0.71 0.70 0.70
1.40 1.35 1.28 1.20 1.18 1.15 1.10 1.04 1.03 1.00 0.93 0.91 0.85 0.77 0.57 0.42 0.33 0.29 0.26 0.24 0.22 0.22 0.21 0.21 0.19 0.19 0.18 0.18 0.18 0.20 0.25 0.37 0.55 0.70 0.74 0.72 0.70 0.73 0.79 0.84 0.86 0.85 0.86
1.50 1.42 1.39 1.39 1.37 1.32 1.24 1.18 1.16 1.16 1.12 1.06 1.01 1.04 0.80 0.54 0.40 0.35 0.31 0.27 0.25 0.25 0.26 0.26 0.24 0.23 0.22 0.21 0.20 0.21 0.23 0.27 0.41 0.64 0.83 0.89 0.88 0.89 0.94 1.00 1.04 1.06 1.04
1.56 1.48 1.45 1.44 1.46 1.42 1.32 1.34 1.34 1.24 1.26 1.22 1.16 1.07 0.92 0.73 0.65 0.50 0.39 0.37 0.34 0.30 0.31 0.31 0.29 0.27 0.25 0.25 0.25 0.28 0.30 0.31 0.40 0.60 0.85 1.00 1.04 1.09 1.20 1.29 1.35 1.33 1.24
1.48 1.42 1.40 1.43 1.41 1.41 1.37 1.38 1.41 1.40 1.34 1.31 1.25 1.20 1.19 1.04 0.88 0.81 0.63 0.49 0.47 0.42 0.40 0.40 0.40 0.38 0.34 0.32 0.31 0.36 0.42 0.44 0.52 0.64 0.83 1.01 1.13 1.23 1.35 1.46 1.54 1.57 1.49
1.39 1.31 1.28 1.30 1.35 1.35 1.32 1.33 1.41 1.47 1.48 1.38 1.27 1.17 1.15 1.10 0.98 0.96 0.86 0.66 0.58 0.50 0.47 0.44 0.43 0.45 0.48 0.49 0.50 0.59 0.60 0.62 0.67 0.75 0.88 1.03 1.16 1.26 1.38 1.52 1.63 1.67 1.66
1.36 1.29 1.24 1.24 1.28 1.32 1.37 1.43 1.44 1.44 1.50 1.48 1.42 1.33 1.25 1.13 1.05 1.06 1.05 0.87 0.72 0.58 0.54 0.52 0.49 0.49 0.53 0.59 0.64 0.78 0.76 0.78 0.81 0.85 0.98 1.13 1.19 1.20 1.24 1.34 1.49 1.60 1.64
1.23 1.25 1.29 1.32 1.33 1.35 1.35 1.38 1.36 1.33 1.37 1.40 1.39 1.34 1.28 1.19 1.19 1.19 1.17 1.21 1.11 0.88 0.75 0.68 0.64 0.65 0.67 0.71 0.81 0.90 0.80 0.88 0.85 0.85 0.94 1.04 1.04 1.01 1.01 1.09 1.28 1.46 1.54
1.13 1.16 1.21 1.26 1.28 1.27 1.25 1.27 1.25 1.22 1.26 1.30 1.31 1.32 1.27 1.17 1.16 1.17 1.18 1.25 1.36 1.21 0.91 0.71 0.68 0.68 0.73 0.76 0.85 0.81 0.74 0.88 0.88 0.83 0.85 0.86 0.84 0.83 0.81 0.83 0.92 1.08 1.19
0.94 0.97 1.04 1.10 1.12 1.11 1.10 1.12 1.13 1.10 1.14 1.13 1.15 1.22 1.23 1.16 1.13 1.14 1.17 1.21 1.29 1.35 1.14 0.77 0.67 0.67 0.72 0.75 0.83 0.74 0.68 0.81 0.79 0.76 0.74 0.73 0.72 0.70 0.69 0.70 0.72 0.81 0.90
0.85 0.89 0.91 0.96 0.98 0.98 0.99 0.99 0.98 0.97 0.99 0.99 1.01 1.04 1.07 1.09 1.14 1.14 1.16 1.20 1.25 1.31 1.28 0.94 0.77 0.75 0.80 0.80 0.80 0.73 0.66 0.64 0.62 0.72 0.67 0.64 0.63 0.62 0.62 0.61 0.62 0.65 0.69
0.75 0.75 0.77 0.80 0.81 0.81 0.82 0.84 0.85 0.85 0.85 0.85 0.86 0.91 0.92 0.96 1.00 1.05 1.12 1.17 1.20 1.22 1.24 1.08 0.85 0.77 0.76 0.74 0.71 0.69 0.64 0.58 0.53 0.63 0.61 0.58 0.56 0.55 0.53 0.52 0.56 0.60 0.62
0.75 0.68 0.66 0.67 0.67 0.68 0.69 0.70 0.72 0.73 0.75 0.76 0.76 0.79 0.82 0.87 0.93 0.94 0.98 1.02 1.04 1.06 1.10 1.06 0.88 0.73 0.68 0.65 0.66 0.62 0.56 0.53 0.48 0.52 0.53 0.52 0.52 0.53 0.54 0.53 0.55 0.56 0.55
0.68 0.64 0.60 0.57 0.57 0.60 0.64 0.65 0.67 0.68 0.69 0.70 0.72 0.75 0.77 0.80 0.82 0.84 0.88 0.90 0.91 0.92 0.94 0.97 0.90 0.80 0.73 0.69 0.71 0.68 0.63 0.57 0.52 0.47 0.52 0.52 0.54 0.53 0.50 0.47 0.46 0.48 0.50
0.55 0.56 0.55 0.55 0.53 0.53 0.56 0.59 0.63 0.66 0.68 0.70 0.71 0.72 0.76 0.83 0.85 0.83 0.81 0.81 0.82 0.87 0.91 0.98 0.95 0.80 0.68 0.65 0.65 0.61 0.61 0.60 0.60 0.55 0.54 0.49 0.44 0.40 0.38 0.40 0.43 0.46 0.50
0.47 0.50 0.53 0.57 0.60 0.62 0.75 0.71 0.65 0.66 0.70 0.70 0.69 0.67 0.67 0.71 0.70 0.72 0.72 0.71 0.76 0.84 0.95 1.00 0.90 0.73 0.58 0.52 0.52 0.57 0.63 0.69 0.63 0.46 0.48 0.46 0.43 0.42 0.38 0.35 0.44 0.48 0.48
0.57 0.60 0.65 0.68 0.71 0.78 0.86 0.78 0.73 0.65 0.66 0.67 0.65 0.60 0.56 0.55 0.56 0.49 0.54 0.58 0.61 0.70 0.73 0.66 0.60 0.52 0.49 0.48 0.58 0.67 0.67 0.66 0.54 0.41 0.48 0.52 0.46 0.43 0.37 0.38 0.45 0.43 0.43
0.80 0.83 0.87 0.88 0.87 0.86 0.85 0.75 0.71 0.62 0.59 0.55 0.50 0.45 0.42 0.39 0.38 0.39 0.42 0.50 0.48 0.47 0.46 0.43 0.41 0.39 0.40 0.43 0.54 0.67 0.69 0.68 0.56 0.45 0.45 0.50 0.40 0.38 0.34 0.35 0.43 0.42 0.42
0.92 0.89 0.85 0.83 0.80 0.74 0.70 0.61 0.52 0.44 0.44 0.43 0.38 0.35 0.35 0.33 0.39 0.46 0.46 0.48 0.38 0.33 0.37 0.42 0.45 0.44 0.45 0.46 0.48 0.60 0.72 0.80 0.70 0.47 0.38 0.42 0.36 0.34 0.34 0.33 0.36 0.43 0.42
0.70 0.64 0.61 0.57 0.54 0.50 0.48 0.43 0.40 0.34 0.32 0.30 0.29 0.30 0.35 0.35 0.42 0.50 0.46 0.42 0.35 0.31 0.33 0.37 0.40 0.41 0.40 0.42 0.48 0.49 0.65 0.90 0.80 0.57 0.32 0.38 0.41 0.48 0.61 0.37 0.31 0.34 0.37